When you browse on this site, cookies collect data to enhance your experience and personalize the content and advertising you see.
Visit our Privacy Policy to learn more. By continuing to use the site, you agree to this use of cookies and data.
  • en Suisse
  • Liste des pays
  • À 7 jours
  • Température de l'eau
  • Carte météo
  • Widgets météo
  • user-avatar
    Se connecter

    Météo par heure à Kingston upon Thames

    Ce jour, 8 Décembre, Dimanche

    Heure Température Précipitation Vent Pression Humidité
    00:00 +10°C° 0 mm 8 m/s 752 mmHg 85%
    01:00 +10°C° 1.1 mm 9 m/s 751 mmHg 87%
    02:00 +9°C° 1.1 mm 10 m/s 749 mmHg 88%
    03:00 +11°C° 1.1 mm 11 m/s 748 mmHg 89%
    04:00 +9°C° 0.4 mm 10 m/s 748 mmHg 86%
    05:00 +10°C° 0.4 mm 9 m/s 748 mmHg 82%
    06:00 +10°C° 0 mm 7 m/s 747 mmHg 80%
    07:00 +9°C° 0 mm 7 m/s 748 mmHg 79%
    08:00 +9°C° 0 mm 7 m/s 748 mmHg 79%
    09:00 +8°C° 0 mm 7 m/s 749 mmHg 79%
    10:00 +7°C° 0 mm 8 m/s 749 mmHg 75%
    11:00 +7°C° 0 mm 8 m/s 749 mmHg 71%
    12:00 +9°C° 0 mm 8 m/s 749 mmHg 69%
    13:00 +9°C° 0.2 mm 8 m/s 748 mmHg 70%
    14:00 +7°C° 0.2 mm 8 m/s 747 mmHg 72%
    15:00 +6°C° 0.2 mm 8 m/s 747 mmHg 73%
    16:00 +6°C° 0.1 mm 8 m/s 747 mmHg 73%
    17:00 +5°C° 0.1 mm 8 m/s 747 mmHg 72%
    18:00 +5°C° 0.1 mm 7 m/s 746 mmHg 72%
    19:00 +5°C° 0 mm 7 m/s 746 mmHg 73%
    20:00 +4°C° 0 mm 8 m/s 745 mmHg 73%
    21:00 +4°C° 0 mm 8 m/s 745 mmHg 74%
    22:00 +5°C° 0.4 mm 8 m/s 744 mmHg 77%
    23:00 +5°C° 0.4 mm 8 m/s 743 mmHg 80%

    Demain, 9 Décembre, Lundi

    Heure Température Précipitation Vent Pression Humidité
    00:00 +5°C° 0.4 mm 8 m/s 742 mmHg 83%
    01:00 +5°C° 0.1 mm 8 m/s 742 mmHg 82%
    02:00 +5°C° 0.1 mm 8 m/s 742 mmHg 82%
    03:00 +4°C° 0.1 mm 7 m/s 741 mmHg 81%
    04:00 +5°C° 0.3 mm 8 m/s 743 mmHg 79%
    05:00 +5°C° 0.3 mm 8 m/s 744 mmHg 77%
    06:00 +5°C° 0.3 mm 9 m/s 746 mmHg 75%
    07:00 +5°C° 0 mm 9 m/s 748 mmHg 73%
    08:00 +5°C° 0 mm 9 m/s 750 mmHg 70%
    09:00 +5°C° 0 mm 10 m/s 751 mmHg 68%
    10:00 +5°C° 0 mm 9 m/s 753 mmHg 66%
    11:00 +5°C° 0 mm 9 m/s 755 mmHg 64%
    12:00 +5°C° 0 mm 8 m/s 757 mmHg 63%
    13:00 +5°C° 0 mm 7 m/s 758 mmHg 63%
    14:00 +5°C° 0 mm 6 m/s 760 mmHg 63%
    15:00 +5°C° 0 mm 5 m/s 761 mmHg 63%
    16:00 +5°C° 0 mm 4 m/s 762 mmHg 65%
    17:00 +4°C° 0 mm 4 m/s 763 mmHg 68%
    18:00 +3°C° 0 mm 3 m/s 765 mmHg 70%
    19:00 +3°C° 0 mm 3 m/s 765 mmHg 72%
    20:00 +3°C° 0 mm 3 m/s 766 mmHg 74%
    21:00 +3°C° 0 mm 2 m/s 766 mmHg 77%
    22:00 +3°C° 0 mm 2 m/s 767 mmHg 79%
    23:00 +3°C° 0 mm 2 m/s 767 mmHg 80%

    Après-demain, 10 Décembre, Mardi

    Heure Température Précipitation Vent Pression Humidité
    00:00 +3°C° 0 mm 2 m/s 767 mmHg 82%
    01:00 +3°C° 0 mm 2 m/s 766 mmHg 82%
    02:00 +3°C° 0 mm 2 m/s 766 mmHg 82%
    03:00 +2°C° 0 mm 3 m/s 765 mmHg 83%
    04:00 +2°C° 0 mm 3 m/s 765 mmHg 82%
    05:00 +3°C° 0 mm 4 m/s 764 mmHg 81%
    06:00 +4°C° 0 mm 4 m/s 764 mmHg 81%
    07:00 +5°C° 0 mm 5 m/s 763 mmHg 81%
    08:00 +4°C° 0 mm 6 m/s 762 mmHg 82%
    09:00 +5°C° 0 mm 7 m/s 761 mmHg 83%
    10:00 +6°C° 0.3 mm 8 m/s 760 mmHg 84%
    11:00 +6°C° 0.3 mm 9 m/s 760 mmHg 85%
    12:00 +6°C° 0.3 mm 10 m/s 759 mmHg 87%
    13:00 +7°C° 0.8 mm 10 m/s 757 mmHg 87%
    14:00 +7°C° 0.8 mm 10 m/s 756 mmHg 88%
    15:00 +8°C° 0.8 mm 10 m/s 754 mmHg 89%
    16:00 +8°C° 0.4 mm 10 m/s 753 mmHg 89%
    17:00 +9°C° 0.4 mm 10 m/s 753 mmHg 88%
    18:00 +9°C° 0.4 mm 10 m/s 752 mmHg 88%
    19:00 +8°C° 1.5 mm 9 m/s 753 mmHg 87%
    20:00 +7°C° 1.5 mm 8 m/s 753 mmHg 87%
    21:00 +6°C° 1.5 mm 7 m/s 753 mmHg 86%
    22:00 +7°C° 0.4 mm 6 m/s 754 mmHg 83%
    23:00 +6°C° 0.4 mm 5 m/s 754 mmHg 81%

    11 Décembre, Mercredi

    Heure Température Précipitation Vent Pression Humidité
    00:00 +6°C° 0.4 mm 4 m/s 755 mmHg 78%
    01:00 +5°C° 0 mm 3 m/s 755 mmHg 79%
    02:00 +5°C° 0 mm 3 m/s 755 mmHg 79%
    03:00 +5°C° 0 mm 3 m/s 755 mmHg 80%
    04:00 +4°C° 0 mm 3 m/s 754 mmHg 81%
    05:00 +4°C° 0 mm 2 m/s 754 mmHg 83%
    06:00 +4°C° 0 mm 2 m/s 754 mmHg 85%
    07:00 +3°C° 0 mm 3 m/s 754 mmHg 84%
    08:00 +3°C° 0 mm 3 m/s 753 mmHg 83%
    09:00 +3°C° 0 mm 3 m/s 753 mmHg 82%
    10:00 +4°C° 0 mm 4 m/s 752 mmHg 78%
    11:00 +5°C° 0 mm 4 m/s 751 mmHg 74%
    12:00 +6°C° 0 mm 5 m/s 750 mmHg 70%
    13:00 +6°C° 0.2 mm 4 m/s 749 mmHg 73%
    14:00 +5°C° 0.2 mm 4 m/s 749 mmHg 76%
    15:00 +5°C° 0.2 mm 4 m/s 748 mmHg 79%
    16:00 +4°C° 0.5 mm 4 m/s 748 mmHg 80%
    17:00 +4°C° 0.5 mm 4 m/s 748 mmHg 82%
    18:00 +4°C° 0.5 mm 4 m/s 748 mmHg 83%
    19:00 +2°C° 0 mm 5 m/s 749 mmHg 81%
    20:00 +2°C° 0 mm 5 m/s 749 mmHg 79%
    21:00 +1°C° 0 mm 5 m/s 750 mmHg 77%
    22:00 +1°C° 0 mm 5 m/s 750 mmHg 77%
    23:00 +1°C° 0 mm 5 m/s 751 mmHg 77%

    12 Décembre, Jeudi

    Heure Température Précipitation Vent Pression Humidité
    00:00 +1°C° 0 mm 5 m/s 751 mmHg 78%
    01:00 +1°C° 0 mm 5 m/s 752 mmHg 78%
    02:00 +1°C° 0 mm 5 m/s 752 mmHg 78%
    03:00 +1°C° 0 mm 5 m/s 752 mmHg 78%
    04:00 +1°C° 0 mm 4 m/s 752 mmHg 79%
    05:00 +1°C° 0 mm 4 m/s 751 mmHg 80%
    06:00 +1°C° 0 mm 4 m/s 751 mmHg 81%
    07:00 +1°C° 0 mm 4 m/s 750 mmHg 80%
    08:00 +3°C° 0 mm 4 m/s 750 mmHg 80%
    09:00 +3°C° 0 mm 5 m/s 749 mmHg 80%
    10:00 +4°C° 0.3 mm 6 m/s 747 mmHg 83%
    11:00 +5°C° 0.3 mm 7 m/s 745 mmHg 86%
    12:00 +6°C° 0.3 mm 9 m/s 744 mmHg 89%
    13:00 +6°C° 2 mm 9 m/s 741 mmHg 89%
    14:00 +7°C° 2 mm 10 m/s 739 mmHg 90%
    15:00 +7°C° 2 mm 10 m/s 737 mmHg 90%
    16:00 +7°C° 0.5 mm 10 m/s 736 mmHg 87%
    17:00 +7°C° 0.5 mm 9 m/s 735 mmHg 84%
    18:00 +8°C° 0.5 mm 9 m/s 734 mmHg 80%
    19:00 +6°C° 0 mm 9 m/s 735 mmHg 78%
    20:00 +5°C° 0 mm 9 m/s 735 mmHg 75%
    21:00 +3°C° 0 mm 9 m/s 735 mmHg 72%
    22:00 +4°C° 0.1 mm 8 m/s 736 mmHg 72%
    23:00 +2°C° 0.1 mm 8 m/s 736 mmHg 71%

    13 Décembre, Vendredi

    Heure Température Précipitation Vent Pression Humidité
    00:00 +2°C° 0.1 mm 8 m/s 736 mmHg 71%
    01:00 +2°C° 0 mm 8 m/s 736 mmHg 72%
    02:00 +1°C° 0 mm 8 m/s 736 mmHg 73%
    03:00 +1°C° 0 mm 8 m/s 736 mmHg 74%
    04:00 +1°C° 0 mm 9 m/s 737 mmHg 73%
    05:00 +1°C° 0 mm 9 m/s 737 mmHg 71%
    06:00 +1°C° 0 mm 9 m/s 737 mmHg 70%
    07:00 +1°C° 0 mm 9 m/s 738 mmHg 69%
    08:00 +1°C° 0 mm 10 m/s 739 mmHg 68%
    09:00 +1°C° 0 mm 10 m/s 740 mmHg 68%
    10:00 +2°C° 0 mm 10 m/s 740 mmHg 66%
    11:00 +3°C° 0 mm 10 m/s 741 mmHg 64%
    12:00 +3°C° 0 mm 10 m/s 741 mmHg 62%
    13:00 +3°C° 0 mm 9 m/s 742 mmHg 63%
    14:00 +3°C° 0 mm 9 m/s 742 mmHg 65%
    15:00 +4°C° 0 mm 8 m/s 742 mmHg 66%
    16:00 +3°C° 0 mm 7 m/s 743 mmHg 68%
    17:00 +3°C° 0 mm 6 m/s 743 mmHg 70%
    18:00 +2°C° 0 mm 6 m/s 743 mmHg 72%
    19:00 +2°C° 0 mm 5 m/s 744 mmHg 74%
    20:00 +2°C° 0 mm 5 m/s 744 mmHg 77%
    21:00 +4°C° 0 mm 4 m/s 744 mmHg 79%
    22:00 +4°C° 0 mm 4 m/s 743 mmHg 82%
    23:00 +4°C° 0 mm 4 m/s 743 mmHg 85%
    Voir plus